Location: Derby
(52.9213°N, 1.4761°W)
Time: 14:07:45
(UTC+01:00)

Transit 4A - Visible Passes

Search period start: 18 May 2025 00:00
Search period end: 28 May 2025 00:00
Orbit: 865 x 977 km, 66.8° (Epoch: 17 May)

Date Brightness Start Highest point End Pass type
(mag) Time Alt. Az. Time Alt. Az. Time Alt. Az.
18 May 10.5 00:10:30 10° NW 00:15:21 23° N 00:20:06 10° NE visible
18 May 10.0 01:58:22 10° NW 02:03:40 28° NNE 02:08:49 10° E visible
18 May 8.3 03:44:54 10° NW 03:51:04 70° NE 03:56:59 10° SE visible
18 May 10.0 22:30:49 10° W 22:36:24 31° NNW 22:41:52 10° NE visible
19 May 10.5 00:19:50 10° NW 00:24:38 22° N 00:29:20 10° NE visible
19 May 9.8 02:07:19 10° NW 02:12:50 33° NNE 02:18:12 10° E visible
19 May 7.9 03:53:47 10° NW 03:59:56 90° NE 04:05:52 10° SE visible
19 May 10.2 22:40:16 10° WNW 22:45:35 28° NNW 22:50:49 10° NE visible
20 May 10.4 00:29:05 10° NW 00:33:55 23° N 00:38:39 10° ENE visible
20 May 9.4 02:16:13 10° NW 02:21:57 38° NNE 02:27:31 10° E visible
20 May 7.8 04:02:40 10° NW 04:08:45 70° SW 04:14:36 10° SSE visible
20 May 10.4 22:49:43 10° WNW 22:54:49 25° NNW 22:59:49 10° NE visible
21 May 10.3 00:38:14 10° NW 00:43:11 24° NNE 00:48:02 10° ENE visible
21 May 9.0 02:25:05 10° NW 02:31:01 47° NE 02:36:45 10° ESE visible
21 May 8.0 04:11:37 10° NW 04:17:29 52° WSW 04:23:10 10° SSE visible
21 May 10.4 22:59:09 10° WNW 23:04:04 23° N 23:08:53 10° NE visible
22 May 10.1 00:47:18 10° NW 00:52:26 26° NNE 00:57:26 10° ENE visible
22 May 8.5 02:33:57 10° NW 02:40:01 59° NE 02:45:52 10° ESE visible
22 May 10.4 23:08:32 10° NW 23:13:21 22° N 23:18:04 10° NE visible
23 May 9.9 00:56:18 10° NW 01:01:38 29° NNE 01:06:50 10° E visible
23 May 8.1 02:42:48 10° NW 02:48:57 75° NE 02:54:52 10° SE visible
23 May 10.4 23:17:51 10° NW 23:22:38 22° N 23:27:19 10° NE visible
24 May 9.6 01:05:14 10° NW 01:10:48 34° NNE 01:16:12 10° E visible
24 May 7.8 02:51:41 10° NW 02:57:48 85° SW 03:03:43 10° SE visible
24 May 10.3 23:27:04 10° NW 23:31:55 23° N 23:36:39 10° ENE visible
25 May 9.2 01:14:06 10° NW 01:19:54 40° NE 01:25:29 10° ESE visible
25 May 7.8 03:00:35 10° NW 03:06:35 65° WSW 03:12:24 10° SSE visible
25 May 10.3 21:47:46 10° WNW 21:52:47 24° NNW 21:57:43 10° NE visible
25 May 10.1 23:36:11 10° NW 23:41:10 24° NNE 23:46:02 10° ENE visible
26 May 8.8 01:22:59 10° NW 01:28:56 49° NE 01:34:42 10° ESE visible
26 May 8.1 03:09:32 10° NW 03:15:19 48° WSW 03:20:55 10° S visible
26 May 10.4 21:57:12 10° WNW 22:02:03 23° N 22:06:49 10° NE visible
26 May 9.9 23:45:15 10° NW 23:50:24 27° NNE 23:55:26 10° ENE visible
27 May 8.3 01:31:50 10° NW 01:37:55 62° NE 01:43:47 10° SE visible
27 May 8.5 03:18:34 10° NW 03:23:58 35° WSW 03:29:12 10° S visible
27 May 10.3 22:06:33 10° NW 22:11:20 22° N 22:16:01 10° NE visible
